Time,TemperatureF,DewpointF,PressureIn,WindDirection,WindDirectionDegrees,WindSpeedMPH,WindSpeedGustMPH,Humidity,HourlyPrecipIn,Conditions,Clouds,dailyrainin,SoftwareType,DateUTC
2013-08-11 00:03:00,51.0,37.0,-100.00,NNE,14,2.0,4.0,59,-99.99,,,-99.99,,2013-08-11 07:03:00,
2013-08-11 00:13:00,51.0,37.0,-100.00,NNE,14,2.0,4.0,59,-99.99,,,-99.99,,2013-08-11 07:13:00,
2013-08-11 00:22:00,50.0,37.0,-100.00,NE,40,2.0,4.0,61,-99.99,,,-99.99,,2013-08-11 07:22:00,
2013-08-11 00:34:00,50.0,37.0,-100.00,NE,40,2.0,4.0,61,-99.99,,,-99.99,,2013-08-11 07:34:00,
2013-08-11 00:44:00,49.0,37.0,-100.00,NE,40,2.0,4.0,62,-99.99,,,-99.99,,2013-08-11 07:44:00,
2013-08-11 01:03:00,48.0,36.0,-100.00,NE,48,1.0,4.0,63,-99.99,,,-99.99,,2013-08-11 08:03:00,
2013-08-11 01:23:00,48.0,35.0,-100.00,NE,42,2.0,4.0,61,-99.99,,,-99.99,,2013-08-11 08:23:00,
2013-08-11 01:34:00,48.0,35.0,-100.00,NE,42,2.0,4.0,61,-99.99,,,-99.99,,2013-08-11 08:34:00,
2013-08-11 01:57:00,48.0,35.0,-100.00,NE,40,2.0,4.0,61,-99.99,,,-99.99,,2013-08-11 08:57:00,
2013-08-11 02:03:00,47.0,34.0,-100.00,NE,35,2.0,5.0,60,-99.99,,,-99.99,,2013-08-11 09:03:00,
2013-08-11 02:33:00,47.0,33.0,-100.00,NE,44,2.0,5.0,59,-99.99,,,-99.99,,2013-08-11 09:33:00,
2013-08-11 02:43:00,46.0,32.0,-100.00,NNE,31,1.0,3.0,58,-99.99,,,-99.99,,2013-08-11 09:43:00,
2013-08-11 03:02:00,46.0,32.0,-100.00,ESE,114,0.0,4.0,58,-99.99,,,-99.99,,2013-08-11 10:02:00,
2013-08-11 03:12:00,46.0,32.0,-100.00,ESE,114,0.0,4.0,58,-99.99,,,-99.99,,2013-08-11 10:12:00,
2013-08-11 03:23:00,45.0,32.0,-100.00,NE,42,1.0,3.0,59,-99.99,,,-99.99,,2013-08-11 10:23:00,
2013-08-11 03:33:00,45.0,32.0,-100.00,NE,42,1.0,3.0,59,-99.99,,,-99.99,,2013-08-11 10:33:00,
2013-08-11 03:43:00,45.0,32.0,-100.00,NE,42,1.0,3.0,59,-99.99,,,-99.99,,2013-08-11 10:43:00,
2013-08-11 03:53:00,44.0,31.0,-100.00,NNE,32,2.0,3.0,59,-99.99,,,-99.99,,2013-08-11 10:53:00,
2013-08-11 04:04:00,44.0,31.0,-100.00,NNE,32,2.0,3.0,59,-99.99,,,-99.99,,2013-08-11 11:04:00,
2013-08-11 04:12:00,44.0,30.0,-100.00,NNE,20,2.0,3.0,58,-99.99,,,-99.99,,2013-08-11 11:12:00,
2013-08-11 04:22:00,44.0,30.0,-100.00,NNE,20,2.0,3.0,58,-99.99,,,-99.99,,2013-08-11 11:22:00,
2013-08-11 04:46:00,44.0,30.0,-100.00,NE,44,0.0,3.0,57,-99.99,,,-99.99,,2013-08-11 11:46:00,
2013-08-11 04:56:00,44.0,30.0,-100.00,NE,45,0.0,2.0,57,-99.99,,,-99.99,,2013-08-11 11:56:00,
2013-08-11 05:04:00,44.0,30.0,-100.00,NE,45,0.0,2.0,57,-99.99,,,-99.99,,2013-08-11 12:04:00,
2013-08-11 05:12:00,44.0,30.0,-100.00,ENE,62,1.0,2.0,57,-99.99,,,-99.99,,2013-08-11 12:12:00,
2013-08-11 05:24:00,44.0,30.0,-100.00,ENE,62,1.0,2.0,57,-99.99,,,-99.99,,2013-08-11 12:24:00,
2013-08-11 05:33:00,44.0,30.0,-100.00,ENE,62,1.0,2.0,57,-99.99,,,-99.99,,2013-08-11 12:33:00,
2013-08-11 05:43:00,43.0,29.0,-100.00,NE,45,2.0,3.0,58,-99.99,,,-99.99,,2013-08-11 12:43:00,
2013-08-11 06:01:00,43.0,30.0,-100.00,NNE,30,3.0,5.0,59,-99.99,,,-99.99,,2013-08-11 13:01:00,
2013-08-11 06:12:00,43.0,29.0,-100.00,East,82,0.0,3.0,58,-99.99,,,-99.99,,2013-08-11 13:12:00,
2013-08-11 06:35:00,43.0,30.0,-100.00,SE,136,0.0,2.0,59,-99.99,,,-99.99,,2013-08-11 13:35:00,
2013-08-11 06:43:00,43.0,30.0,-100.00,SE,136,0.0,2.0,59,-99.99,,,-99.99,,2013-08-11 13:43:00,
2013-08-11 06:57:00,43.0,29.0,-100.00,ESE,119,0.0,2.0,58,-99.99,,,-99.99,,2013-08-11 13:57:00,
2013-08-11 07:02:00,43.0,29.0,-100.00,ESE,119,0.0,2.0,58,-99.99,,,-99.99,,2013-08-11 14:02:00,
2013-08-11 07:13:00,43.0,29.0,-100.00,ESE,119,0.0,2.0,58,-99.99,,,-99.99,,2013-08-11 14:13:00,
2013-08-11 07:45:00,44.0,29.0,-100.00,NE,44,0.0,1.0,56,-99.99,,,-99.99,,2013-08-11 14:45:00,
2013-08-11 07:57:00,44.0,29.0,-100.00,NE,44,0.0,1.0,56,-99.99,,,-99.99,,2013-08-11 14:57:00,
2013-08-11 08:02:00,46.0,30.0,-100.00,NNE,20,0.0,2.0,54,-99.99,,,-99.99,,2013-08-11 15:02:00,
2013-08-11 08:12:00,46.0,30.0,-100.00,NNE,20,0.0,2.0,54,-99.99,,,-99.99,,2013-08-11 15:12:00,
2013-08-11 09:23:00,60.0,30.0,-100.00,West,274,0.0,2.0,32,-99.99,,,-99.99,,2013-08-11 16:23:00,
2013-08-11 09:33:00,60.0,30.0,-100.00,West,274,0.0,2.0,32,-99.99,,,-99.99,,2013-08-11 16:33:00,
2013-08-11 09:44:00,59.0,31.0,-100.00,SW,216,2.0,4.0,35,-99.99,,,-99.99,,2013-08-11 16:44:00,
2013-08-11 09:53:00,59.0,31.0,-100.00,SW,216,2.0,4.0,35,-99.99,,,-99.99,,2013-08-11 16:53:00,
2013-08-11 10:12:00,60.0,34.0,-100.00,WSW,251,3.0,6.0,37,-99.99,,,-99.99,,2013-08-11 17:12:00,
2013-08-11 10:23:00,61.0,37.0,-100.00,SSW,198,2.0,6.0,41,-99.99,,,-99.99,,2013-08-11 17:23:00,
2013-08-11 10:32:00,61.0,37.0,-100.00,SSW,198,2.0,6.0,41,-99.99,,,-99.99,,2013-08-11 17:32:00,
2013-08-11 10:44:00,61.0,37.0,-100.00,SSW,198,2.0,6.0,41,-99.99,,,-99.99,,2013-08-11 17:44:00,
2013-08-11 10:53:00,61.0,36.0,-100.00,WSW,246,5.0,9.0,40,-99.99,,,-99.99,,2013-08-11 17:53:00,
2013-08-11 11:15:00,62.0,37.0,-100.00,WSW,246,5.0,9.0,40,-99.99,,,-99.99,,2013-08-11 18:15:00,
2013-08-11 11:22:00,62.0,37.0,-100.00,WSW,246,5.0,9.0,40,-99.99,,,-99.99,,2013-08-11 18:22:00,
2013-08-11 11:37:00,64.0,34.0,-100.00,SW,215,3.0,7.0,32,-99.99,,,-99.99,,2013-08-11 18:37:00,
2013-08-11 11:45:00,64.0,34.0,-100.00,SW,215,3.0,7.0,32,-99.99,,,-99.99,,2013-08-11 18:45:00,
2013-08-11 11:53:00,66.0,33.0,-100.00,SW,232,3.0,6.0,29,-99.99,,,-99.99,,2013-08-11 18:53:00,
2013-08-11 12:04:00,66.0,33.0,-100.00,SW,232,3.0,6.0,29,-99.99,,,-99.99,,2013-08-11 19:04:00,
2013-08-11 12:12:00,67.0,32.0,-100.00,SSE,168,4.0,8.0,27,-99.99,,,-99.99,,2013-08-11 19:12:00,
2013-08-11 12:23:00,67.0,32.0,-100.00,SSE,168,4.0,8.0,27,-99.99,,,-99.99,,2013-08-11 19:23:00,
2013-08-11 12:32:00,67.0,27.0,-100.00,SSW,196,4.0,7.0,22,-99.99,,,-99.99,,2013-08-11 19:32:00,
2013-08-11 12:44:00,67.0,27.0,-100.00,SSW,196,4.0,7.0,22,-99.99,,,-99.99,,2013-08-11 19:44:00,
2013-08-11 12:57:00,70.0,27.0,-100.00,SSW,193,3.0,7.0,20,-99.99,,,-99.99,,2013-08-11 19:57:00,
2013-08-11 13:16:00,70.0,27.0,-100.00,SSW,200,5.0,9.0,20,-99.99,,,-99.99,,2013-08-11 20:16:00,
2013-08-11 13:22:00,70.0,27.0,-100.00,SSW,200,5.0,9.0,20,-99.99,,,-99.99,,2013-08-11 20:22:00,
2013-08-11 13:44:00,70.0,27.0,-100.00,SW,217,6.0,11.0,20,-99.99,,,-99.99,,2013-08-11 20:44:00,
2013-08-11 13:56:00,70.0,27.0,-100.00,WSW,237,6.0,12.0,20,-99.99,,,-99.99,,2013-08-11 20:56:00,
2013-08-11 14:02:00,70.0,27.0,-100.00,WSW,237,6.0,12.0,20,-99.99,,,-99.99,,2013-08-11 21:02:00,
2013-08-11 14:11:00,70.0,27.0,-100.00,WSW,237,6.0,12.0,20,-99.99,,,-99.99,,2013-08-11 21:11:00,
2013-08-11 14:22:00,70.0,27.0,-100.00,WSW,237,6.0,12.0,20,-99.99,,,-99.99,,2013-08-11 21:22:00,
2013-08-11 14:45:00,71.0,30.0,-100.00,SW,234,6.0,14.0,22,-99.99,,,-99.99,,2013-08-11 21:45:00,
2013-08-11 15:03:00,71.0,29.0,-100.00,WSW,248,6.0,15.0,21,-99.99,,,-99.99,,2013-08-11 22:03:00,
2013-08-11 15:13:00,71.0,29.0,-100.00,WSW,248,6.0,15.0,21,-99.99,,,-99.99,,2013-08-11 22:13:00,
2013-08-11 15:23:00,71.0,31.0,-100.00,WSW,248,7.0,16.0,23,-99.99,,,-99.99,,2013-08-11 22:23:00,
2013-08-11 15:33:00,71.0,31.0,-100.00,WSW,248,7.0,16.0,23,-99.99,,,-99.99,,2013-08-11 22:33:00,
2013-08-11 15:44:00,71.0,31.0,-100.00,WSW,244,7.0,15.0,23,-99.99,,,-99.99,,2013-08-11 22:44:00,
2013-08-11 15:56:00,71.0,31.0,-100.00,WSW,244,7.0,15.0,23,-99.99,,,-99.99,,2013-08-11 22:56:00,
2013-08-11 16:12:00,72.0,33.0,-100.00,WSW,254,8.0,15.0,24,-99.99,,,-99.99,,2013-08-11 23:12:00,
2013-08-11 16:32:00,72.0,35.0,-100.00,West,272,7.0,14.0,26,-99.99,,,-99.99,,2013-08-11 23:32:00,
2013-08-11 16:44:00,72.0,34.0,-100.00,WSW,251,7.0,12.0,25,-99.99,,,-99.99,,2013-08-11 23:44:00,
2013-08-11 17:03:00,72.0,36.0,-100.00,WSW,240,7.0,14.0,27,-99.99,,,-99.99,,2013-08-12 00:03:00,
2013-08-11 17:12:00,72.0,36.0,-100.00,WSW,240,7.0,14.0,27,-99.99,,,-99.99,,2013-08-12 00:12:00,
2013-08-11 17:22:00,71.0,37.0,-100.00,WSW,246,9.0,14.0,29,-99.99,,,-99.99,,2013-08-12 00:22:00,
2013-08-11 17:33:00,71.0,37.0,-100.00,WSW,246,9.0,14.0,29,-99.99,,,-99.99,,2013-08-12 00:33:00,
2013-08-11 17:53:00,70.0,38.0,-100.00,WSW,248,10.0,17.0,31,-99.99,,,-99.99,,2013-08-12 00:53:00,
2013-08-11 18:13:00,70.0,39.0,-100.00,WSW,246,10.0,18.0,32,-99.99,,,-99.99,,2013-08-12 01:13:00,
2013-08-11 18:23:00,70.0,39.0,-100.00,WSW,246,10.0,18.0,32,-99.99,,,-99.99,,2013-08-12 01:23:00,
2013-08-11 18:34:00,69.0,40.0,-100.00,WSW,247,11.0,18.0,35,-99.99,,,-99.99,,2013-08-12 01:34:00,
2013-08-11 18:53:00,68.0,41.0,-100.00,WSW,253,10.0,16.0,37,-99.99,,,-99.99,,2013-08-12 01:53:00,
2013-08-11 19:01:00,67.0,42.0,-100.00,WSW,247,7.0,12.0,40,-99.99,,,-99.99,,2013-08-12 02:01:00,
2013-08-11 19:04:00,68.0,41.0,-100.00,WSW,253,10.0,16.0,37,-99.99,,,-99.99,,2013-08-12 02:04:00,
2013-08-11 19:12:00,69.0,39.0,-100.00,WSW,240,7.0,11.0,34,-99.99,,,-99.99,,2013-08-12 02:12:00,
2013-08-11 19:23:00,69.0,39.0,-100.00,WSW,240,7.0,11.0,34,-99.99,,,-99.99,,2013-08-12 02:23:00,
2013-08-11 19:34:00,67.0,42.0,-100.00,WSW,247,7.0,12.0,40,-99.99,,,-99.99,,2013-08-12 02:34:00,
2013-08-11 19:43:00,67.0,42.0,-100.00,WSW,247,7.0,12.0,40,-99.99,,,-99.99,,2013-08-12 02:43:00,
2013-08-11 19:56:00,67.0,42.0,-100.00,WSW,247,7.0,12.0,40,-99.99,,,-99.99,,2013-08-12 02:56:00,
2013-08-11 20:23:00,64.0,40.0,-100.00,West,271,5.0,9.0,42,-99.99,,,-99.99,,2013-08-12 03:23:00,
2013-08-11 20:34:00,64.0,40.0,-100.00,West,271,5.0,9.0,42,-99.99,,,-99.99,,2013-08-12 03:34:00,
2013-08-11 20:43:00,63.0,40.0,-100.00,WNW,292,3.0,7.0,43,-99.99,,,-99.99,,2013-08-12 03:43:00,
2013-08-11 21:02:00,62.0,40.0,-100.00,NW,304,4.0,9.0,45,-99.99,,,-99.99,,2013-08-12 04:02:00,
2013-08-11 21:12:00,62.0,40.0,-100.00,NW,304,4.0,9.0,45,-99.99,,,-99.99,,2013-08-12 04:12:00,
2013-08-11 21:22:00,60.0,39.0,-100.00,West,268,4.0,7.0,45,-99.99,,,-99.99,,2013-08-12 04:22:00,
2013-08-11 21:32:00,60.0,39.0,-100.00,West,268,4.0,7.0,45,-99.99,,,-99.99,,2013-08-12 04:32:00,
2013-08-11 21:43:00,60.0,39.0,-100.00,West,272,3.0,5.0,46,-99.99,,,-99.99,,2013-08-12 04:43:00,
2013-08-11 21:52:00,60.0,39.0,-100.00,West,272,3.0,5.0,46,-99.99,,,-99.99,,2013-08-12 04:52:00,
2013-08-11 22:02:00,58.0,39.0,-100.00,NNE,13,1.0,3.0,50,-99.99,,,-99.99,,2013-08-12 05:02:00,
2013-08-11 22:11:00,58.0,39.0,-100.00,NNE,13,1.0,3.0,50,-99.99,,,-99.99,,2013-08-12 05:11:00,
2013-08-11 22:22:00,56.0,39.0,-100.00,NE,45,2.0,4.0,53,-99.99,,,-99.99,,2013-08-12 05:22:00,
2013-08-11 22:32:00,56.0,39.0,-100.00,NE,45,2.0,4.0,53,-99.99,,,-99.99,,2013-08-12 05:32:00,
2013-08-11 22:43:00,55.0,40.0,-100.00,NNE,28,1.0,3.0,57,-99.99,,,-99.99,,2013-08-12 05:43:00,
2013-08-11 22:52:00,55.0,40.0,-100.00,NNE,28,1.0,3.0,57,-99.99,,,-99.99,,2013-08-12 05:52:00,
2013-08-11 23:01:00,53.0,39.0,-100.00,NE,44,1.0,4.0,60,-99.99,,,-99.99,,2013-08-12 06:01:00,
2013-08-11 23:11:00,53.0,39.0,-100.00,NE,44,1.0,4.0,60,-99.99,,,-99.99,,2013-08-12 06:11:00,
2013-08-11 23:22:00,53.0,39.0,-100.00,NE,44,1.0,4.0,60,-99.99,,,-99.99,,2013-08-12 06:22:00,
2013-08-11 23:32:00,52.0,39.0,-100.00,NNE,30,2.0,3.0,61,-99.99,,,-99.99,,2013-08-12 06:32:00,
2013-08-11 23:42:00,51.0,39.0,-100.00,NNE,30,1.0,4.0,64,-99.99,,,-99.99,,2013-08-12 06:42:00,
2013-08-11 23:52:00,51.0,39.0,-100.00,NNE,30,1.0,4.0,64,-99.99,,,-99.99,,2013-08-12 06:52:00,